EST,Max TemperatureF,Mean TemperatureF,Min TemperatureF,Max Dew PointF,MeanDew PointF,Min DewpointF,Max Humidity, Mean Humidity, Min Humidity, Max Sea Level PressureIn, Mean Sea Level PressureIn, Min Sea Level PressureIn, Max VisibilityMiles, Mean VisibilityMiles, Min VisibilityMiles, Max Wind SpeedMPH, Mean Wind SpeedMPH, Max Gust SpeedMPH,PrecipitationIn, CloudCover, Events, WindDirDegrees
2014-2-1,59,40,21,38,23,15,88,54,19,30.24,30.17,30.11,10,10,10,10,3,12,0.00,6,,163
2014-2-2,68,53,38,51,44,37,100,76,52,30.14,30.08,29.99,10,9,2,15,7,20,0.00,7,,208
2014-2-3,72,59,46,62,53,39,100,76,51,30.22,29.98,29.87,10,10,3,21,11,29,0.09,7,Rain,186
2014-2-4,46,42,37,38,36,33,100,85,70,30.36,30.25,30.11,10,5,1,17,8,22,0.19,8,Rain,36
2014-2-5,60,49,38,48,39,27,100,75,50,30.11,29.94,29.83,10,5,1,18,6,24,0.10,7,Rain,255
2014-2-6,42,36,30,27,23,20,75,58,41,30.34,30.26,30.13,10,10,10,16,5,21,0.00,8,,13
2014-2-7,51,40,29,31,28,26,92,66,39,30.35,30.28,30.23,10,10,10,12,3,14,0.00,5,,169
2014-2-8,57,47,37,34,32,30,76,59,41,30.26,30.18,30.10,10,10,10,10,3,14,0.00,6,,114
2014-2-9,60,48,36,37,36,33,92,66,40,30.14,30.07,29.96,10,10,7,18,6,25,0.00,6,,203
2014-2-10,48,40,32,38,33,30,92,73,53,30.24,30.13,30.03,10,10,8,14,7,23,0.05,7,Rain-Snow,53
2014-2-11,35,33,30,31,28,20,92,74,56,30.36,30.30,30.21,10,5,0,13,7,22,0.13,8,Snow,42
2014-2-12,30,27,23,27,20,14,96,75,53,30.39,30.16,29.82,10,4,0,22,11,28,1.00,8,Fog-Snow,30
2014-2-13,47,37,26,34,29,24,100,77,53,29.80,29.65,29.54,10,6,0,17,8,24,0.60,7,Fog-Rain-Snow,324
2014-2-14,53,42,30,32,28,24,78,58,38,29.83,29.78,29.68,10,10,10,17,7,22,0.00,5,,210
2014-2-15,48,38,28,39,26,8,100,61,22,30.07,29.79,29.57,10,9,6,22,8,33,0.15,5,Rain,283
2014-2-16,57,44,30,29,24,19,72,51,30,30.14,30.08,30.02,10,10,10,13,5,20,T,4,,196
2014-2-17,49,41,33,29,26,22,70,56,41,30.34,30.25,30.16,10,10,10,14,7,24,0.00,5,,84
2014-2-18,65,47,28,38,30,22,85,54,22,30.23,30.16,30.07,10,10,10,12,4,14,0.00,5,,173
2014-2-19,76,62,48,59,52,39,100,73,46,30.07,29.99,29.92,10,7,1,21,7,26,1.44,7,Rain-Thunderstorm,212
2014-2-20,77,66,54,57,53,50,100,72,43,30.13,30.06,29.94,10,9,7,25,9,35,0.00,5,,172
2014-2-21,66,54,42,61,49,18,97,61,25,30.04,29.90,29.83,10,9,2,25,11,32,0.26,6,Rain,239
2014-2-22,64,49,33,34,25,18,73,46,19,30.20,30.12,30.05,10,10,10,13,4,16,0.00,4,,158
2014-2-23,68,54,39,43,35,28,73,51,28,30.09,30.01,29.91,10,10,10,15,6,18,0.00,5,,196
2014-2-24,66,54,41,42,31,18,86,55,24,30.12,30.03,29.90,10,10,10,15,6,20,0.00,1,,351
2014-2-25,64,50,35,28,22,15,56,41,25,30.08,29.99,29.90,10,10,10,14,6,23,0.00,5,,67
2014-2-26,51,43,34,23,20,16,48,40,32,29.94,29.87,29.78,10,10,10,15,7,21,0.00,5,,45
2014-2-27,57,43,29,19,12,1,56,34,12,29.98,29.86,29.80,10,10,10,14,5,20,0.00,2,,321
2014-2-28,50,40,29,16,12,8,43,33,23,30.27,30.19,30.01,10,10,6,15,9,23,0.00,2,,60